Weather History for KRYT - November, 2012

Change the Weather History Date:

Saturday, November 3, 2012

  Actual Average (KHGR) Record (KHGR)
Temperature  
Mean Temperature 44 °F -  
Max Temperature 46 °F 55 °F 78 °F (2003)
Min Temperature 41 °F 39 °F 26 °F (2006)
Degree Days  
Heating Degree Days 22    
Moisture  
Dew Point 28 °F    
Average Humidity 55    
Maximum Humidity 60    
Minimum Humidity 51    
Precipitation  
Precipitation 0.00 in - - ()
Sea Level Pressure  
Sea Level Pressure 30.00 in    
Wind  
Wind Speed 5 mph (NW)    
Max Wind Speed 9 mph    
Max Gust Speed 23 mph    
Visibility 10 miles    
Events      
Averages and records for this station are not official NWS values.
T = Trace of Precipitation, MM = Missing Value Source: NWS Daily Summary

Daily Weather History Graph

Daily Weather History Graph

Search for Another Location

Airport or City:

Trip Planner

Search our weather history database for the weather conditions in past years. The results will help you decide how hot, cold, wet, or windy it might be!

Date:

Astronomy

Nov. 03, 2012 Rise Set
Actual Time 7:41 AM EDT 6:04 PM EDT
Civil Twilight 7:12 AM EDT 6:33 PM EDT
Nautical Twilight 6:40 AM EDT 7:05 PM EDT
Astronomical Twilight 6:09 AM EDT 7:36 PM EDT
Moon 9:44 PM EDT (11/3) 11:43 AM EDT (11/3)
Length of Visible Light 11h 20m
Length of Day
10h 23m
Waning Gibbous, 80% of the Moon is Illuminated
Nov 3
Waning Gibbous
Nov 6
Last Quarter
Nov 13
New
Nov 20
First Quarter
Nov 28
Full

Hourly Weather History & Observations

Time (EDT) Temp. Windchill Dew Point Humidity Pressure Visibility Wind Dir Wind Speed Gust Speed Precip Events Conditions
12:53 AM 44.1 °F 42.5 °F 28.0 °F 53% 29.90 in 10.0 mi Variable 3.5 mph - N/A   Overcast
1:53 AM 43.0 °F 38.8 °F 28.0 °F 56% 29.90 in 10.0 mi Variable 6.9 mph - N/A   Mostly Cloudy
2:53 AM 43.0 °F 40.3 °F 28.0 °F 56% 29.91 in 10.0 mi Variable 4.6 mph - N/A   Mostly Cloudy
3:53 AM 42.1 °F 40.2 °F 28.0 °F 58% 29.92 in 10.0 mi Variable 3.5 mph - N/A   Overcast
4:53 AM 42.1 °F 38.4 °F 28.0 °F 58% 29.93 in 10.0 mi Variable 5.8 mph - N/A   Overcast
6:53 AM 41.0 °F 36.4 °F 28.0 °F 60% 29.97 in 10.0 mi Variable 6.9 mph - N/A   Overcast
8:53 AM 42.1 °F 37.7 °F 28.0 °F 58% 30.00 in 10.0 mi Variable 6.9 mph - N/A   Scattered Clouds
9:53 AM 44.1 °F 39.0 °F 28.9 °F 55% 30.01 in 10.0 mi West 9.2 mph 23.0 mph N/A   Scattered Clouds
10:53 AM 44.1 °F 39.5 °F 28.0 °F 53% 30.01 in 10.0 mi NW 8.1 mph - N/A   Overcast
11:53 AM 45.0 °F 40.6 °F 28.9 °F 53% 30.01 in 10.0 mi NW 8.1 mph - N/A   Overcast
12:53 PM 45.0 °F 41.8 °F 28.9 °F 53% 30.01 in 10.0 mi NNW 5.8 mph - N/A   Overcast
2:53 PM 46.0 °F 41.9 °F 28.9 °F 51% 30.00 in 10.0 mi NNW 8.1 mph - N/A   Overcast
4:53 PM 45.0 °F 40.1 °F 30.0 °F 56% 30.02 in 10.0 mi West 9.2 mph - N/A   Scattered Clouds
5:53 PM 45.0 °F - 30.0 °F 56% 30.02 in 10.0 mi Calm Calm - N/A   Overcast
6:53 PM 44.1 °F - 30.0 °F 58% 30.03 in 10.0 mi Calm Calm - N/A   Overcast
7:53 PM 44.1 °F 42.5 °F 30.0 °F 58% 30.04 in 10.0 mi Variable 3.5 mph - N/A   Overcast
8:53 PM 44.1 °F 40.8 °F 27.0 °F 51% 30.04 in 10.0 mi Variable 5.8 mph - N/A   Mostly Cloudy
9:53 PM 43.0 °F - 27.0 °F 53% 30.06 in 10.0 mi Calm Calm - N/A   Mostly Cloudy
10:53 PM 43.0 °F 39.5 °F 27.0 °F 53% 30.06 in 10.0 mi Variable 5.8 mph - N/A   Mostly Cloudy
11:53 PM 43.0 °F 40.3 °F 26.1 °F 51% 30.07 in 10.0 mi Variable 4.6 mph - N/A   Mostly Cloudy